EN

Hourly Weather Lafayette

Today, 6 August, Friday

Time Temperature Precipitation Wind Pressure Humidity
00:00 +24°C° 0 mm 1 mps 761 mmHg 74%
01:00 +24°C° 0 mm 1 mps 761 mmHg 75%
02:00 +23°C° 0 mm 1 mps 761 mmHg 77%
03:00 +21°C° 0 mm 0 mps 761 mmHg 78%
04:00 +21°C° 0 mm 0 mps 761 mmHg 79%
05:00 +21°C° 0 mm 0 mps 761 mmHg 79%
06:00 +22°C° 0 mm 0 mps 761 mmHg 79%
07:00 +22°C° 0 mm 0 mps 762 mmHg 77%
08:00 +23°C° 0 mm 0 mps 762 mmHg 76%
09:00 +26°C° 0 mm 1 mps 762 mmHg 75%
10:00 +28°C° 0 mm 1 mps 762 mmHg 69%
11:00 +29°C° 0 mm 1 mps 762 mmHg 64%
12:00 +31°C° 0 mm 1 mps 762 mmHg 59%
13:00 +31°C° 0 mm 1 mps 762 mmHg 56%
14:00 +32°C° 0 mm 1 mps 761 mmHg 52%
15:00 +32°C° 0 mm 1 mps 761 mmHg 49%
16:00 +32°C° 0 mm 1 mps 761 mmHg 55%
17:00 +31°C° 0 mm 1 mps 761 mmHg 61%
18:00 +30°C° 0 mm 1 mps 761 mmHg 66%
19:00 +28°C° 0 mm 1 mps 761 mmHg 68%
20:00 +27°C° 0 mm 2 mps 761 mmHg 70%
21:00 +25°C° 0 mm 2 mps 761 mmHg 72%
22:00 +25°C° 0 mm 2 mps 761 mmHg 76%
23:00 +25°C° 0 mm 2 mps 761 mmHg 80%

Tomorrow, 7 August, Saturday

Time Temperature Precipitation Wind Pressure Humidity
00:00 +24°C° 0 mm 1 mps 761 mmHg 83%
01:00 +24°C° 0 mm 1 mps 761 mmHg 86%
02:00 +24°C° 0 mm 1 mps 760 mmHg 89%
03:00 +24°C° 0 mm 1 mps 760 mmHg 91%
04:00 +25°C° 0 mm 1 mps 761 mmHg 91%
05:00 +23°C° 0 mm 0 mps 761 mmHg 92%
06:00 +23°C° 0 mm 0 mps 761 mmHg 92%
07:00 +27°C° 0.1 mm 1 mps 761 mmHg 86%
08:00 +28°C° 0.1 mm 1 mps 762 mmHg 81%
09:00 +30°C° 0.1 mm 1 mps 762 mmHg 76%
10:00 +31°C° 0.6 mm 1 mps 762 mmHg 73%
11:00 +31°C° 0.6 mm 2 mps 762 mmHg 70%
12:00 +32°C° 0.6 mm 2 mps 761 mmHg 67%
13:00 +32°C° 0.8 mm 2 mps 761 mmHg 67%
14:00 +32°C° 0.8 mm 2 mps 761 mmHg 67%
15:00 +34°C° 0.8 mm 3 mps 760 mmHg 67%
16:00 +33°C° 0.6 mm 3 mps 760 mmHg 72%
17:00 +31°C° 0.6 mm 2 mps 760 mmHg 76%
18:00 +30°C° 0.6 mm 2 mps 760 mmHg 81%
19:00 +29°C° 0 mm 2 mps 760 mmHg 84%
20:00 +28°C° 0 mm 2 mps 760 mmHg 87%
21:00 +27°C° 0 mm 2 mps 760 mmHg 90%
22:00 +27°C° 0 mm 2 mps 761 mmHg 91%
23:00 +27°C° 0 mm 2 mps 761 mmHg 91%

Day after tomorrow, 8 August, Sunday

Time Temperature Precipitation Wind Pressure Humidity
00:00 +26°C° 0 mm 2 mps 761 mmHg 91%
01:00 +26°C° 0 mm 2 mps 761 mmHg 92%
02:00 +26°C° 0 mm 2 mps 761 mmHg 92%
03:00 +26°C° 0 mm 1 mps 761 mmHg 92%
04:00 +26°C° 0 mm 1 mps 761 mmHg 92%
05:00 +26°C° 0 mm 1 mps 761 mmHg 92%
06:00 +26°C° 0 mm 1 mps 761 mmHg 93%
07:00 +28°C° 0 mm 2 mps 761 mmHg 86%
08:00 +30°C° 0 mm 2 mps 761 mmHg 80%
09:00 +31°C° 0 mm 3 mps 762 mmHg 74%
10:00 +33°C° 0 mm 3 mps 762 mmHg 69%
11:00 +34°C° 0 mm 4 mps 761 mmHg 64%
12:00 +35°C° 0 mm 4 mps 761 mmHg 60%
13:00 +35°C° 0.7 mm 4 mps 761 mmHg 62%
14:00 +34°C° 0.7 mm 4 mps 761 mmHg 64%
15:00 +34°C° 0.7 mm 4 mps 761 mmHg 67%
16:00 +33°C° 0.8 mm 4 mps 761 mmHg 72%
17:00 +31°C° 0.8 mm 3 mps 761 mmHg 78%
18:00 +30°C° 0.8 mm 3 mps 761 mmHg 83%
19:00 +29°C° 0 mm 3 mps 761 mmHg 86%
20:00 +28°C° 0 mm 3 mps 761 mmHg 89%
21:00 +27°C° 0 mm 2 mps 761 mmHg 91%
22:00 +27°C° 0 mm 2 mps 761 mmHg 92%
23:00 +27°C° 0 mm 2 mps 761 mmHg 92%

9 August, Monday

Time Temperature Precipitation Wind Pressure Humidity
00:00 +27°C° 0 mm 2 mps 761 mmHg 92%
01:00 +27°C° 0 mm 2 mps 761 mmHg 92%
02:00 +27°C° 0 mm 2 mps 761 mmHg 92%
03:00 +26°C° 0 mm 2 mps 761 mmHg 92%
04:00 +26°C° 0 mm 2 mps 762 mmHg 91%
05:00 +26°C° 0 mm 2 mps 762 mmHg 91%
06:00 +26°C° 0 mm 2 mps 762 mmHg 91%
07:00 +28°C° 0 mm 2 mps 762 mmHg 84%
08:00 +30°C° 0 mm 3 mps 762 mmHg 77%
09:00 +31°C° 0 mm 3 mps 763 mmHg 71%
10:00 +33°C° 0 mm 3 mps 763 mmHg 66%
11:00 +34°C° 0 mm 3 mps 763 mmHg 62%
12:00 +35°C° 0 mm 3 mps 763 mmHg 57%
13:00 +35°C° 0 mm 3 mps 762 mmHg 58%
14:00 +35°C° 0 mm 3 mps 762 mmHg 59%
15:00 +35°C° 0 mm 4 mps 762 mmHg 59%
16:00 +34°C° 0.1 mm 3 mps 761 mmHg 66%
17:00 +33°C° 0.1 mm 3 mps 761 mmHg 73%
18:00 +31°C° 0.1 mm 3 mps 761 mmHg 79%
19:00 +29°C° 0 mm 3 mps 762 mmHg 83%
20:00 +28°C° 0 mm 3 mps 762 mmHg 86%
21:00 +27°C° 0 mm 2 mps 762 mmHg 89%
22:00 +27°C° 0 mm 2 mps 762 mmHg 90%
23:00 +27°C° 0 mm 2 mps 762 mmHg 91%

10 August, Tuesday

Time Temperature Precipitation Wind Pressure Humidity
00:00 +26°C° 0 mm 2 mps 762 mmHg 91%
01:00 +26°C° 0 mm 2 mps 762 mmHg 92%
02:00 +26°C° 0 mm 2 mps 762 mmHg 94%
03:00 +26°C° 0 mm 2 mps 762 mmHg 95%
04:00 +26°C° 0 mm 2 mps 762 mmHg 95%
05:00 +26°C° 0 mm 2 mps 763 mmHg 94%
06:00 +26°C° 0 mm 2 mps 763 mmHg 94%
07:00 +28°C° 0 mm 2 mps 763 mmHg 88%
08:00 +30°C° 0 mm 2 mps 764 mmHg 81%
09:00 +31°C° 0 mm 2 mps 764 mmHg 75%
10:00 +33°C° 0.1 mm 3 mps 764 mmHg 70%
11:00 +34°C° 0.1 mm 3 mps 763 mmHg 65%
12:00 +35°C° 0.1 mm 3 mps 763 mmHg 61%
13:00 +35°C° 0.1 mm 3 mps 763 mmHg 61%
14:00 +35°C° 0.1 mm 4 mps 762 mmHg 62%
15:00 +35°C° 0.1 mm 4 mps 762 mmHg 62%
16:00 +34°C° 0.3 mm 4 mps 762 mmHg 68%
17:00 +33°C° 0.3 mm 4 mps 762 mmHg 74%
18:00 +30°C° 0.3 mm 3 mps 762 mmHg 79%
19:00 +29°C° 0 mm 3 mps 762 mmHg 83%
20:00 +28°C° 0 mm 3 mps 762 mmHg 86%
21:00 +27°C° 0 mm 2 mps 762 mmHg 89%
22:00 +27°C° 0 mm 2 mps 762 mmHg 91%
23:00 +27°C° 0 mm 2 mps 762 mmHg 92%

11 August, Wednesday

Time Temperature Precipitation Wind Pressure Humidity
00:00 +27°C° 0 mm 2 mps 762 mmHg 93%
01:00 +27°C° 0 mm 2 mps 762 mmHg 93%
02:00 +27°C° 0 mm 2 mps 762 mmHg 93%
03:00 +27°C° 0 mm 2 mps 761 mmHg 94%
04:00 +27°C° 0 mm 2 mps 762 mmHg 94%
05:00 +27°C° 0 mm 2 mps 762 mmHg 94%
06:00 +27°C° 0 mm 1 mps 762 mmHg 94%
07:00 +28°C° 0.1 mm 2 mps 762 mmHg 87%
08:00 +30°C° 0.1 mm 2 mps 763 mmHg 80%
09:00 +32°C° 0.1 mm 2 mps 763 mmHg 74%
10:00 +33°C° 0.6 mm 3 mps 763 mmHg 71%
11:00 +34°C° 0.6 mm 3 mps 762 mmHg 68%
12:00 +34°C° 0.6 mm 3 mps 762 mmHg 65%
13:00 +34°C° 0.6 mm 3 mps 762 mmHg 64%
14:00 +34°C° 0.6 mm 4 mps 761 mmHg 64%
15:00 +34°C° 0.6 mm 4 mps 761 mmHg 64%
16:00 +33°C° 0.3 mm 4 mps 761 mmHg 69%
17:00 +31°C° 0.3 mm 3 mps 761 mmHg 74%
18:00 +30°C° 0.3 mm 3 mps 761 mmHg 79%
19:00 +29°C° 0 mm 3 mps 761 mmHg 82%
20:00 +28°C° 0 mm 3 mps 761 mmHg 86%
21:00 +27°C° 0 mm 3 mps 762 mmHg 89%
22:00 +27°C° 0 mm 2 mps 762 mmHg 90%
23:00 +27°C° 0 mm 2 mps 762 mmHg 91%
Show more